Guernsey, United Kingdom

11:16 AM BST on May 21, 2018 (GMT +0100)
Guernsey

Weather History for EGJB - October, 2011

Change the Weather History Date:

Thursday, October 20, 2011

  Actual Average Record
Temperature  
Mean Temperature 50 °F -  
Max Temperature 54 °F 53 °F 62 °F (1997)
Min Temperature 45 °F 48 °F 44 °F (2007)
Degree Days  
Heating Degree Days 16    
Moisture  
Dew Point 38 °F    
Average Humidity 63    
Maximum Humidity 76    
Minimum Humidity 45    
Precipitation  
Precipitation 0.00 in - - ()
Sea Level Pressure  
Sea Level Pressure 30.38 in    
Wind  
Wind Speed 6 mph ()    
Max Wind Speed 12 mph    
Max Gust Speed -    
Visibility 6.2 miles    
Events Rain    
Averages and records for this station are not official NWS values.
T = Trace of Precipitation, MM = Missing Value Source: Averaged Metar Reports

Daily Weather History Graph

Daily Weather History Graph

Search for Another Location

Airport or City:

Astronomy

Oct. 20, 2011 Rise Set
Actual Time 7:38 AM BST 6:11 PM BST
Civil Twilight 7:06 AM BST 6:43 PM BST
Nautical Twilight 6:29 AM BST 7:20 PM BST
Astronomical Twilight 5:52 AM BST 7:57 PM BST
Moon No Moon Rise 2:47 PM BST (10/20)
Length of Visible Light 11h 37m
Length of Day
10h 32m
Waning Gibbous, 47% of the Moon is Illuminated
Oct 20
Waning Gibbous
Oct 26
New
Nov 2
First Quarter
Nov 10
Full
Nov 18
Last Quarter

Hourly Weather History & Observations

Time (BST) Temp. Windchill Dew Point Humidity Pressure Visibility Wind Dir Wind Speed Gust Speed Precip Events Conditions
1:00 AM 49 °F - 36 °F 49% 30.34 in 34 mi NNW 11.5 mph - -   Scattered Clouds
3:50 AM 48.2 °F - 37.4 °F 66% 30.36 in 6.2 mi NNW 6.9 mph - N/A   Partly Cloudy
4:00 AM 48 °F - 38 °F 58% 30.37 in 34 mi NNW 6.9 mph - -   Partly Cloudy
4:20 AM 48.2 °F - 35.6 °F 62% 30.36 in 6.2 mi NNW 6.9 mph - N/A   Partly Cloudy
4:50 AM 46.4 °F 42.9 °F 37.4 °F 71% 30.36 in 6.2 mi NNW 6.9 mph - N/A   Scattered Clouds
5:20 AM 46.4 °F 42.9 °F 37.4 °F 71% 30.36 in 6.2 mi North 6.9 mph - N/A   Scattered Clouds
5:50 AM 48.2 °F - 37.4 °F 66% 30.36 in 6.2 mi NNW 8.1 mph - N/A Rain Light Rain Showers
6:20 AM 48.2 °F - 39.2 °F 71% 30.36 in 6.2 mi North 8.1 mph - N/A Rain Light Rain Showers
6:50 AM 46.4 °F 44.3 °F 39.2 °F 76% 30.36 in 6.2 mi NNE 4.6 mph - N/A   Partly Cloudy
7:00 AM 46 °F - 39 °F 70% 30.38 in 37 mi NNE 4.6 mph - - Rain Light Rain Showers
7:20 AM 46.4 °F 43.5 °F 37.4 °F 71% 30.36 in 6.2 mi NNW 5.8 mph - N/A   Partly Cloudy
7:50 AM 46.4 °F 43.5 °F 39.2 °F 76% 30.36 in 6.2 mi NNW 5.8 mph - N/A   Partly Cloudy
8:20 AM 46.4 °F 43.5 °F 39.2 °F 76% 30.39 in 6.2 mi NNW 5.8 mph - N/A   Partly Cloudy
8:50 AM 48.2 °F - 39.2 °F 71% 30.39 in 6.2 mi NNW 5.8 mph - N/A   Partly Cloudy
9:20 AM 51.8 °F - 41.0 °F 67% 30.39 in 6.2 mi NNW 4.6 mph - N/A   Partly Cloudy
9:50 AM 51.8 °F - 37.4 °F 58% 30.39 in 6.2 mi NNW 9.2 mph - N/A   Partly Cloudy
10:00 AM 52 °F - 38 °F 48% 30.41 in 37 mi NNW 9.2 mph - -   Mostly Cloudy
10:20 AM 51.8 °F - 37.4 °F 58% 30.39 in 6.2 mi NW 8.1 mph - N/A   Partly Cloudy
10:50 AM 51.8 °F - 41.0 °F 67% 30.39 in 6.2 mi NNW 9.2 mph - N/A   Partly Cloudy
11:20 AM 53.6 °F - 41.0 °F 62% 30.42 in 6.2 mi North 5.8 mph - N/A   Partly Cloudy
11:50 AM 51.8 °F - 39.2 °F 62% 30.42 in 6.2 mi NNW 9.2 mph - N/A   Partly Cloudy
12:20 PM 53.6 °F - 39.2 °F 58% 30.42 in 6.2 mi NNW 6.9 mph - N/A   Partly Cloudy
12:50 PM 53.6 °F - 39.2 °F 58% 30.42 in 6.2 mi NW 8.1 mph - N/A   Partly Cloudy
1:00 PM 54 °F - 39 °F 45% 30.43 in 37 mi NW 8.1 mph - -   Scattered Clouds
1:20 PM 55.4 °F - 41.0 °F 58% 30.39 in 6.2 mi NW 8.1 mph - N/A   Partly Cloudy
1:50 PM 53.6 °F - 39.2 °F 58% 30.39 in 6.2 mi NW 10.4 mph - N/A   Partly Cloudy
2:20 PM 53.6 °F - 39.2 °F 58% 30.39 in 6.2 mi WNW 9.2 mph - N/A   Partly Cloudy
2:50 PM 53.6 °F - 39.2 °F 58% 30.39 in 6.2 mi NW 6.9 mph - N/A   Partly Cloudy
3:20 PM 53.6 °F - 39.2 °F 58% 30.39 in 6.2 mi NW 10.4 mph - N/A   Partly Cloudy
3:50 PM 53.6 °F - 37.4 °F 54% 30.39 in 6.2 mi NW 9.2 mph - N/A   Partly Cloudy
4:00 PM 53 °F - 38 °F 45% 30.40 in 37 mi NW 9.2 mph - -   Scattered Clouds
4:20 PM 53.6 °F - 37.4 °F 54% 30.36 in 6.2 mi WNW 9.2 mph - N/A   Partly Cloudy
4:50 PM 51.8 °F - 37.4 °F 58% 30.36 in 6.2 mi NW 8.1 mph - N/A   Partly Cloudy
5:20 PM 51.8 °F - 39.2 °F 62% 30.36 in 6.2 mi NW 6.9 mph - N/A   Partly Cloudy
5:50 PM 50.0 °F - 37.4 °F 62% 30.36 in 6.2 mi NW 3.5 mph - N/A   Partly Cloudy
6:20 PM 48.2 °F - 37.4 °F 66% 30.36 in 6.2 mi NW 3.5 mph - N/A   Partly Cloudy
6:50 PM 48.2 °F - 37.4 °F 66% 30.39 in 6.2 mi WNW 4.6 mph - N/A   Partly Cloudy
7:00 PM 48 °F - 38 °F 58% 30.40 in 37 mi WNW 4.6 mph - -   Scattered Clouds
7:20 PM 48.2 °F - 37.4 °F 66% 30.39 in 6.2 mi NW 3.5 mph - N/A   Partly Cloudy
7:50 PM 48.2 °F - 37.4 °F 66% 30.39 in 6.2 mi WNW 2.3 mph - N/A   Partly Cloudy
8:20 PM 46.4 °F - 37.4 °F 71% 30.36 in 6.2 mi Calm Calm - N/A   Partly Cloudy
8:50 PM 46.4 °F - 37.4 °F 71% 30.36 in 6.2 mi WNW 2.3 mph - N/A   Partly Cloudy
9:20 PM 46.4 °F - 37.4 °F 71% 30.36 in 6.2 mi Calm Calm - N/A   Partly Cloudy
9:50 PM 48.2 °F - 39.2 °F 71% 30.39 in 6.2 mi Calm Calm - N/A   Partly Cloudy
10:00 PM 47 °F - 39 °F 65% 30.40 in 37 mi Calm Calm - -   Scattered Clouds